SCOUT A DEB, 3213

Orbit data source: Space-Track

SCOUT A DEB, 3213 is space debris in LEO originally from a launch on Sat, 02 Mar 1968 UTC launched from the Air Force Western Test Range (AFWTR). Debris objects in space refer to the collection of defunct objects orbiting the Earth. Examples of debris include non-operational satellites, rocket bodies, and fragments generated from explosions, collisions, or faulty payload assembly.

Loading next visibility...
Identifier
3213, 1968-012C
Orbit
LEO
Country
Flag of USUS
Related business
Manufacturer
Unknown
Mission
Spacecraft
Bus & Motor
Unknown
Mass
Unknown
Launch date (UTC)
1968-03-02 (58 years ago)
Launch vehicle
Unknown
Launch site
Air Force Western Test Range (AFWTR)
Object type
Payload
Rocket body
Debris
Shape & HBR
Unknown shape, 0.1 m
Radar Cross Section
Small (<0.1 m²)

Expand to show TLE details & history
Last TLE update: 21 hours ago

TLE from 21 hours ago
0 SCOUT A DEB
1 03213U 68012C   25310.45978214  .00000535  00000-0  42923-3 0  9993
2 03213  90.2134 108.4327 0049915 316.1945  99.3270 13.89101573579528
Epoch: 2025-11-06T11:02Z
TLE epoch observation values (Epoch: 2025-11-06T11:02:05.176Z)
Latitude
56.17979°
Longitude
-103.32353°
Altitude
947.336 km
Speed
7.38 km/s
True Right ascension
07h 12m 27s
True Declination
56° 01' 29"
Sunlit
Object was in daylight at epoch
Visualization orbit readout
Latitude
Unknown
Longitude
Unknown
Altitude
Unknown
Speed
Unknown
Apparent Right ascension
Unknown
Apparent Declination
Unknown
Sunlit
N/A
Visualization observer readout
Local Sidereal Time
04:01:35
Azimuth
Unknown
Elevation
Unknown
Doppler factor
Unknown
Orbital elements
Apogee altitude
965.246 km
Perigee altitude
892.302 km
Semi-major axis
7,306.911 km
Eccentricity
0.00499
Inclination
90.2134°
RAAN
108.4327°
Arg. of periapsis
316.1945°
True anomaly
99.89084°
Mean anomaly
99.327°
Eccentric anomaly
99.60898°
Mean motion
3.4749 °/min
Orbital period
103.6 mins
BSTAR
0.00042923
Loading maneuver chart data...
Computing Atmospheric mass density...
Loading historical data...
Loading historical data...
Loading historical data...
Loading historical data...
Loading historical data...
Loading historical data...
Loading historical data...

Documentation

Showing up to 5 results
|